Terminal Aerodrome Forecast
Issued by NWS

Home | Current Version | Previous Version | Graphics & Text | Print | Product List | Glossary On
Versions: 1 2 3 4 5 6 7 8 9 10 11 12 13 14 15 16 17 18 19 20 21 22 23 24 25 26 27 28 29
310
FTUS43 KABR 160526
TAFPIR
TAF
KPIR 160526Z 1606/1706 VRB03KT P6SM VCSH BKN021 OVC090
     FM160700 34004KT 6SM BR OVC020
     FM161100 33008KT P6SM OVC025
     FM161600 34013KT P6SM BKN025
     FM161700 34013KT P6SM BKN035=

USA.gov is the U.S. government's official web portal to all federal, state and local government web resources and services.